THOR ABLESTAR DEB, 147

Orbit data source: Space-Track

THOR ABLESTAR DEB, 147 is space debris in LEO originally from a launch on Thu, 29 Jun 1961 UTC launched from the Air Force Eastern Test Range (AFETR). Debris objects in space refer to the collection of defunct objects orbiting the Earth. Examples of debris include non-operational satellites, rocket bodies, and fragments generated from explosions, collisions, or faulty payload assembly.

Loading next visibility...
THOR ABLESTAR DEB details
Identifier
147, 1961-015AH
Orbit
LEO
Last TLE update1 day ago
Origin
Flag of USUSAF SSD (US)
ManufacturerUnknown
MissionSpacecraft
Bus & MotorUnknown
MassUnknown
Launch date (UTC)
1961-06-29 (63 years ago)
Launch vehicleUnknown
Launch site
Air Force Eastern Test Range (AFETR)
Object type
Payload
Rocket body
Debris
Shape & HBRUnknown
Radar Cross SectionMedium (>0.1 m² and <1 m²)

Expand to show TLE details & history

TLE from 1 day ago
0 THOR ABLESTAR DEB
1 00147U 61015AH  24355.34733802  .00001793  00000-0  82802-3 0  9997
2 00147  66.6181 333.0827 0045920  99.2271 261.4021 14.22696415257053
Epoch: 2024-12-20T08:20Z
Definitive object data (Epoch: 2024-12-20T08:20:10.004Z)
Latitude-0.00003°
Longitude118.62685°
Altitude823.429 km
Speed7.439 km/s
True Right ascension22h 12m 19s
True Declination0° 00' 00"
Sunlit
Object was in daylight at TLE epoch
Visualization TLE readout
Latitude31.82096°
Longitude130.98956°
Altitude804.561 km
Speed7.462 km/s
Apparent Right ascension23h 33m 21s
Apparent Declination-1° 35' 46"
Sunlit
Object is in daylight
Visualization observer readout
Local Sidereal Time12:12:47
Azimuth15.659° NNE
Elevation-50.645°
Doppler factor1
Orbital elements
Apogee altitude847.667 km
Perigee altitude781.609 km
Semi-major axis7,192.775 km
Eccentricity0.004592
Inclination66.6181°
RAAN333.0827°
Arg. of periapsis99.2271°
True anomaly260.88226°
Mean anomaly261.4021°
Eccentric anomaly261.14214°
Mean motion3.55794 °/min
BSTAR0.00082802
Orbital period101.18 mins
Loading maneuver chart data...

THOR ABLESTAR DEB Visibility forecast

Observer location: undefined°, undefined

Span
Click to sort rows by Start time (UTC) header in descending order
Start Az.
Max El. time (UTC)
Max El. Az.
Max El.
End time (UTC)
End Az.
8 mins2024-12-21 23:15:51.942Z163.01° S2024-12-21 23:19:51.942Z104.53° ESE26.313°2024-12-21 23:23:51.942Z52.655° ENE
8 mins2024-12-22 00:59:51.942Z246.665° WSW2024-12-22 01:03:51.942Z316.767° NNW31.283°2024-12-22 01:07:51.942Z11.717° NNE
6 mins2024-12-22 08:07:51.942Z10.784° NNE2024-12-22 08:09:51.942Z41.331° NE23.296°2024-12-22 08:13:51.942Z98.66° ESE
8 mins2024-12-22 09:50:51.942Z312.736° NW2024-12-22 09:54:51.942Z233.912° WSW35.797°2024-12-22 09:58:51.942Z177.369° S
|